EW4650 Weather Reports


time (UTC)temp
F
wind
direction
speed
knots
gust
knots
rain 1hr
in
rain 24hr
in
rain mn
in
humidity
%
barometer
mb
20260506134547 70 187 4.3 7.8 0.01 0.01 0.01 100 1006.9
20260506134046 70 207 3.5 10.4 0.01 0.01 0.01 100 1006.6
20260506133546 70 175 6.1 10.4 0.01 0.01 0.01 100 1006.5
20260506133048 70 196 3.5 5.2 0.00 0.00 0.00 100 1006.4
20260506132550 70 173 2.6 6.1 0.00 0.00 0.00 100 1006.2
20260506132045 70 211 3.5 6.1 0.00 0.00 0.00 100 1006.2
20260506131545 70 196 3.5 7.8 0.00 0.00 0.00 100 1006.1
20260506131045 70 201 4.3 7.8 0.00 0.00 0.00 100 1006.1
20260506130546 70 210 1.7 6.1 0.00 0.00 0.00 100 1006.1
20260506130018 70 200 3.5 7.8 0.00 0.00 0.00 100 1006.2
20260506125517 70 219 3.5 6.1 0.00 0.00 0.00 100 1006.1
20260506125017 70 213 1.7 5.2 0.00 0.00 0.00 100 1006.1
20260506124517 70 215 3.5 5.2 0.00 0.00 0.00 100 1006.0
20260506124019 70 219 2.6 7.8 0.00 0.00 0.00 100 1005.9
20260506123520 70 188 4.3 9.6 0.00 0.00 0.00 100 1005.8
20260506123017 70 188 4.3 10.4 0.00 0.00 0.00 100 1005.8
20260506122517 70 215 6.1 13.9 0.00 0.00 0.00 100 1005.9
20260506122015 70 184 7.8 13.9 0.00 0.00 0.00 100 1005.8
20260506121515 70 216 6.1 11.3 0.00 0.00 0.00 100 1005.7
20260506121014 70 184 5.2 11.3 0.00 0.00 0.00 100 1005.6
20260506120513 70 207 5.2 11.3 0.00 0.00 0.00 100 1005.8
20260506120013 70 170 6.1 10.4 0.00 0.00 0.00 100 1005.6
20260506115512 70 167 6.1 9.6 0.00 0.00 0.00 100 1005.6
20260506115011 70 171 5.2 7.8 0.00 0.00 0.00 100 1005.7
20260506114510 70 121 4.3 9.6 0.00 0.00 0.00 100 1005.7
20260506114010 70 181 3.5 9.6 0.00 0.00 0.00 100 1005.7
20260506113510 70 172 4.3 8.7 0.00 0.00 0.00 100 1005.8
20260506113010 70 150 4.3 8.7 0.00 0.00 0.00 100 1005.8
20260506112512 70 174 6.1 10.4 0.00 0.00 0.00 100 1005.8
20260506112009 70 165 7.0 10.4 0.00 0.00 0.00 100 1005.9
20260506111520 70 155 4.3 10.4 0.00 0.00 0.00 100 1006.0
20260506111008 70 173 5.2 10.4 0.00 0.00 0.00 100 1006.0
20260506110508 70 161 5.2 9.6 0.00 0.00 0.00 100 1006.0
20260506110010 70 175 6.1 9.6 0.00 0.00 0.00 100 1005.9
20260506105507 70 144 5.2 7.8 0.00 0.00 0.00 100 1005.9
20260506105107 70 163 2.6 7.0 0.00 0.00 0.00 100 1005.9
20260506104506 70 183 2.6 7.0 0.00 0.00 0.00 100 1006.0
20260506104008 70 172 4.3 7.8 0.00 0.00 0.00 100 1005.9
20260506103507 70 155 2.6 7.8 0.00 0.00 0.00 100 1005.8
20260506103006 70 142 2.6 7.0 0.00 0.00 0.00 99 1005.9
20260506102507 70 190 3.5 8.7 0.00 0.00 0.00 99 1005.9
20260506102008 70 191 5.2 10.4 0.00 0.00 0.00 99 1005.8
20260506101505 70 185 7.0 12.2 0.00 0.00 0.00 99 1005.7
20260506101004 70 173 7.0 12.2 0.00 0.00 0.00 99 1005.6
20260506100504 70 178 6.1 13.9 0.00 0.00 0.00 99 1005.8
20260506100004 70 194 6.1 10.4 0.00 0.00 0.00 99 1005.8
20260506095503 71 178 5.2 13.0 0.00 0.00 0.00 99 1005.7
20260506095004 71 197 7.0 13.0 0.00 0.00 0.00 99 1005.7
20260506094504 71 169 6.1 10.4 0.00 0.00 0.00 99 1005.7
20260506094003 71 182 6.1 10.4 0.00 0.00 0.00 99 1005.8
20260506093502 71 145 6.1 10.4 0.00 0.00 0.00 99 1005.8
20260506093002 71 189 6.1 12.2 0.00 0.00 0.00 99 1005.9
20260506092501 71 180 7.0 14.8 0.00 0.00 0.00 99 1005.9
20260506092002 71 167 8.7 14.8 0.00 0.00 0.00 99 1005.7
20260506091503 71 174 4.3 11.3 0.00 0.00 0.00 99 1005.8
20260506091005 71 182 5.2 14.8 0.00 0.00 0.00 99 1005.8
20260506090600 71 218 7.8 14.8 0.00 0.00 0.00 99 1005.8
20260506090111 71 167 7.8 13.0 0.00 0.00 0.00 99 1005.8
20260506085559 71 180 7.8 13.0 0.00 0.00 0.00 99 1005.8
20260506085059 71 172 7.8 13.9 0.00 0.00 0.00 99 1005.7
20260506084632 71 167 7.8 14.8 0.00 0.00 0.00 99 1005.7
20260506084100 71 192 7.0 14.8 0.00 0.00 0.00 99 1005.6
20260506083558 71 202 7.0 11.3 0.00 0.00 0.00 99 1005.5
20260506083059 71 167 5.2 12.2 0.00 0.00 0.00 99 1005.5
20260506082557 71 211 4.3 14.8 0.00 0.00 0.00 98 1005.5
20260506082056 71 178 5.2 13.9 0.00 0.00 0.00 98 1005.5
20260506081611 71 153 8.7 14.8 0.00 0.00 0.00 98 1005.5
20260506081055 71 184 7.8 14.8 0.00 0.00 0.00 98 1005.5
20260506080554 71 186 7.8 13.9 0.00 0.00 0.00 98 1005.6
20260506073047 72 172 6.1 10.4 0.00 0.00 0.00 97 1005.8
20260506072548 72 144 6.1 10.4 0.00 0.00 0.00 97 1005.9
20260506072046 72 132 4.3 10.4 0.00 0.00 0.00 97 1005.9
20260506071544 72 144 7.0 10.4 0.00 0.00 0.00 96 1006.0
20260506071044 72 153 5.2 11.3 0.00 0.00 0.00 96 1006.1
20260506070542 72 180 7.8 11.3 0.00 0.00 0.00 96 1006.2
20260506062037 73 166 4.3 7.0 0.00 0.00 0.00 96 1006.3
20260506061537 73 160 3.5 7.8 0.00 0.00 0.00 96 1006.4
20260506061037 73 151 3.5 8.7 0.00 0.00 0.00 96 1006.3
20260506060536 73 136 3.5 10.4 0.00 0.00 0.00 96 1006.3
20260506051029 73 117 5.2 10.4 0.00 0.00 0.00 95 1006.1
20260506050527 73 123 6.1 9.6 0.00 0.00 0.00 95 1006.2
20260506045027 73 167 6.1 11.3 0.00 0.00 0.00 93 1006.3
20260506044525 73 106 5.2 11.3 0.00 0.00 0.00 93 1006.3
20260506044025 73 127 7.0 11.3 0.00 0.00 0.00 92 1006.3
20260506043525 74 113 3.5 11.3 0.00 0.00 0.00 92 1006.3
20260506043026 74 113 5.2 12.2 0.00 0.00 0.00 91 1006.3
20260506042526 74 122 7.0 12.2 0.00 0.00 0.00 91 1006.2
20260506042026 74 136 5.2 8.7 0.00 0.00 0.00 90 1006.2
20260506041536 74 121 5.2 9.6 0.00 0.00 0.00 90 1006.2
20260506041025 74 148 4.3 8.7 0.00 0.00 0.00 89 1006.0
20260506040524 74 121 6.1 9.6 0.00 0.00 0.00 89 1005.9
20260506040024 74 132 5.2 9.6 0.00 0.00 0.00 89 1005.9
20260506035524 74 144 6.1 11.3 0.00 0.00 0.00 89 1005.9
20260506035023 74 147 7.8 10.4 0.00 0.00 0.00 89 1006.0
20260506034533 74 139 5.2 8.7 0.00 0.00 0.00 89 1005.8
20260506034028 74 138 5.2 9.6 0.00 0.00 0.00 89 1005.7
20260506033529 74 150 4.3 9.6 0.00 0.00 0.00 89 1005.7
20260506033023 74 147 3.5 7.0 0.00 0.00 0.00 89 1005.6
20260506032523 74 142 4.3 7.0 0.00 0.00 0.00 89 1005.6
20260506032023 74 89 2.6 6.1 0.00 0.00 0.00 88 1005.6
20260506031523 74 115 1.7 6.1 0.00 0.00 0.00 87 1005.5
20260506031024 74 119 1.7 7.8 0.00 0.00 0.00 87 1005.5
20260506030525 75 118 3.5 7.8 0.00 0.00 0.00 87 1005.4
20260506030026 74 131 3.5 7.0 0.00 0.00 0.00 87 1005.2
20260506025526 75 147 3.5 7.0 0.00 0.00 0.00 87 1005.2
20260506025021 75 172 2.6 7.0 0.00 0.00 0.00 86 1005.1
20260506024525 75 140 4.3 7.0 0.00 0.00 0.00 86 1005.1
20260506024022 75 161 3.5 9.6 0.00 0.00 0.00 86 1004.9
20260506023526 74 162 5.2 9.6 0.00 0.00 0.00 87 1004.9
20260506023021 74 165 3.5 7.0 0.00 0.00 0.00 87 1004.9
20260506022521 74 138 4.3 7.0 0.00 0.00 0.00 87 1005.0
20260506022020 74 150 3.5 6.1 0.00 0.00 0.00 87 1004.7
20260506021520 75 150 4.3 6.1 0.00 0.00 0.00 86 1004.7
20260506021020 75 196 0.9 2.6 0.00 0.00 0.00 86 1004.5
20260506020523 75 197 0.9 5.2 0.00 0.00 0.00 86 1004.5
20260506020020 75 186 1.7 5.2 0.00 0.00 0.00 85 1004.4
20260506015519 75 165 3.5 4.3 0.00 0.00 0.00 85 1004.3
20260506015022 76 188 2.6 5.2 0.00 0.00 0.00 84 1004.3
20260506014522 76 163 2.6 7.0 0.00 0.00 0.00 84 1004.3
20260506014019 76 164 3.5 7.0 0.00 0.00 0.00 84 1004.2
20260506013519 76 160 4.3 6.1 0.00 0.00 0.00 83 1004.2
20260506013035 77 169 4.3 7.0 0.00 0.00 0.00 83 1004.2
20260506012519 77 176 4.3 7.0 0.00 0.00 0.00 82 1004.1
20260506012019 78 165 3.5 7.0 0.00 0.00 0.00 82 1004.0
20260506011525 78 156 3.5 6.1 0.00 0.00 0.00 80 1003.9
20260506011018 78 146 1.7 6.1 0.00 0.00 0.00 79 1003.8
20260506010518 79 144 2.6 5.2 0.00 0.00 0.00 79 1003.8
20260506010021 79 155 2.6 6.1 0.00 0.00 0.00 78 1003.7
20260506005517 80 165 2.6 6.1 0.00 0.00 0.00 77 1003.7
20260506005017 80 153 2.6 6.1 0.00 0.00 0.00 77 1003.7
20260506004518 80 186 2.6 6.1 0.00 0.00 0.00 76 1003.8
20260506004017 81 163 2.6 6.1 0.00 0.00 0.00 75 1003.8
20260506003517 81 187 2.6 5.2 0.00 0.00 0.00 75 1003.8
20260506003016 81 147 0.9 5.2 0.00 0.00 0.00 75 1003.8
20260506002516 82 170 2.6 6.1 0.00 0.00 0.00 74 1003.8
20260506002016 82 154 3.5 6.1 0.00 0.00 0.00 74 1003.8
20260506001516 82 186 1.7 3.5 0.00 0.00 0.00 74 1003.9
20260506001016 82 186 1.7 4.3 0.00 0.00 0.00 74 1003.9
20260506000514 82 170 1.7 6.1 0.00 0.00 0.00 74 1003.9
20260506000014 82 207 2.6 6.1 0.00 0.00 0.00 73 1003.9
20260505235514 81 204 2.6 6.1 0.00 0.00 0.00 72 1003.8
20260505235017 81 189 1.7 5.2 0.00 0.00 0.00 72 1003.8
20260505234514 82 206 3.5 6.1 0.00 0.00 0.00 72 1003.9
20260505234014 82 207 2.6 7.0 0.00 0.00 0.00 71 1003.9
20260505233513 82 202 3.5 7.0 0.00 0.00 0.00 71 1003.8
20260505233021 82 217 3.5 7.8 0.00 0.00 0.00 72 1003.9
20260505232514 82 199 3.5 7.8 0.00 0.00 0.00 71 1003.8
20260505232013 82 250 2.6 9.6 0.00 0.00 0.00 71 1003.9
20260505231514 82 207 4.3 8.7 0.00 0.00 0.00 70 1003.8
20260505231014 83 186 5.2 9.6 0.00 0.00 0.00 70 1003.7
20260505230514 83 180 5.2 7.8 0.00 0.00 0.00 69 1003.8
20260505230012 83 220 4.3 7.8 0.00 0.00 0.00 69 1003.8
20260505225511 83 212 3.5 7.8 0.00 0.00 0.00 68 1003.7
20260505225011 83 201 2.6 7.8 0.00 0.00 0.00 69 1003.8
20260505224512 82 187 3.5 9.6 0.00 0.00 0.00 69 1003.9
20260505224010 82 201 4.3 9.6 0.00 0.00 0.00 69 1003.9
20260505223509 83 218 3.5 8.7 0.00 0.00 0.00 69 1003.9
20260505223008 83 202 5.2 10.4 0.00 0.00 0.00 69 1003.9
20260505222512 83 178 4.3 10.4 0.00 0.00 0.00 70 1004.0
20260505222008 83 215 6.1 8.7 0.00 0.00 0.00 68 1004.1
20260505221508 83 221 5.2 8.7 0.00 0.00 0.00 68 1004.0
20260505221010 83 228 3.5 8.7 0.00 0.00 0.00 69 1004.0
20260505220506 83 233 3.5 9.6 0.00 0.00 0.00 69 1004.1
20260505220015 83 196 5.2 9.6 0.00 0.00 0.00 70 1004.1
20260505215506 83 246 6.1 8.7 0.00 0.00 0.00 70 1004.3
20260505215005 83 180 6.1 8.7 0.00 0.00 0.00 71 1004.2
20260505214505 82 205 4.3 8.7 0.00 0.00 0.00 71 1004.2
20260505214004 82 257 4.3 8.7 0.00 0.00 0.00 71 1004.2
20260505213503 82 221 4.3 8.7 0.00 0.00 0.00 72 1004.3
20260505213003 82 245 4.3 9.6 0.00 0.00 0.00 71 1004.3
20260505212503 82 239 4.3 9.6 0.00 0.00 0.00 71 1004.5
20260505212003 83 236 6.1 9.6 0.00 0.00 0.00 69 1004.4
20260505211502 83 217 2.6 9.6 0.00 0.00 0.00 69 1004.5
20260505211001 82 226 6.1 9.6 0.00 0.00 0.00 71 1004.6
20260505210601 82 217 6.1 9.6 0.00 0.00 0.00 69 1004.5
20260505210107 82 163 5.2 8.7 0.00 0.00 0.00 73 1004.6
20260505205559 82 225 2.6 13.0 0.00 0.00 0.00 70 1004.7
20260505205058 82 227 7.8 13.9 0.00 0.00 0.00 70 1004.7
20260505204604 82 222 8.7 14.8 0.00 0.00 0.00 69 1004.9
20260505204056 82 228 9.6 13.9 0.00 0.00 0.00 71 1004.9
20260505203559 82 253 6.1 12.2 0.00 0.00 0.00 72 1005.0
20260505203107 82 245 6.1 12.2 0.00 0.00 0.00 72 1005.0
20260505202555 82 225 5.2 11.3 0.00 0.00 0.00 72 1005.0
20260505202056 82 194 6.1 12.2 0.00 0.00 0.00 71 1005.1
20260505201555 82 194 5.2 12.2 0.00 0.00 0.00 71 1005.1
20260505201057 82 213 5.2 11.3 0.00 0.00 0.00 73 1005.2
20260505200552 82 211 5.2 10.4 0.00 0.00 0.00 73 1005.3
20260505200101 81 194 5.2 10.4 0.00 0.00 0.00 72 1005.3
20260505195551 81 227 4.3 7.8 0.00 0.00 0.00 73 1005.4
20260505195050 81 214 2.6 7.0 0.00 0.00 0.00 73 1005.5
20260505194548 81 240 4.3 10.4 0.00 0.00 0.00 74 1005.5
20260505194046 80 190 6.1 9.6 0.00 0.00 0.00 76 1005.6
20260505193546 80 208 4.3 7.8 0.00 0.00 0.00 75 1005.7
20260505193058 80 145 4.3 11.3 0.00 0.00 0.00 74 1005.7
20260505192548 80 206 7.8 10.4 0.00 0.00 0.00 75 1005.7
20260505192043 80 213 2.6 8.7 0.00 0.00 0.00 77 1005.8
20260505191544 79 239 5.2 9.6 0.00 0.00 0.00 77 1006.0
20260505191042 79 190 6.1 9.6 0.00 0.00 0.00 78 1006.0
20260505190543 79 223 4.3 7.8 0.00 0.00 0.00 78 1006.0
20260505190044 79 184 5.2 11.3 0.00 0.00 0.00 80 1006.0
20260505185538 78 175 4.3 11.3 0.00 0.00 0.00 81 1006.1
20260505185038 78 196 5.2 11.3 0.00 0.00 0.00 81 1006.2
20260505184536 77 197 4.3 10.4 0.00 0.00 0.00 81 1006.2
20260505184035 77 249 6.1 10.4 0.00 0.00 0.00 82 1006.4
20260505183537 77 236 5.2 10.4 0.00 0.00 0.00 82 1006.5
20260505183037 76 234 4.3 7.8 0.00 0.00 0.00 83 1006.6
20260505182531 75 203 4.3 9.6 0.00 0.00 0.00 85 1006.6
20260505182031 75 225 6.1 9.6 0.00 0.00 0.00 85 1006.8
20260505181530 75 142 3.5 8.7 0.00 0.00 0.00 87 1006.9
20260505181029 74 207 3.5 8.7 0.00 0.00 0.00 89 1006.9
20260505180527 73 223 5.2 8.7 0.00 0.00 0.00 88 1006.9
20260505180025 73 267 3.5 8.7 0.00 0.00 0.00 92 1007.0
20260505175524 72 219 4.3 10.4 0.00 0.00 0.00 93 1007.0
20260505175023 72 246 7.0 10.4 0.00 0.00 0.00 96 1007.0
20260505174522 72 227 3.5 7.0 0.00 0.00 0.00 99 1007.0
20260505174021 71 198 1.7 7.0 0.00 0.00 0.00 100 1007.1
20260505173521 70 222 3.5 7.0 0.00 0.00 0.00 100 1007.1
20260505173018 69 257 4.3 7.0 0.00 0.00 0.00 100 1007.2
20260505172518 69 240 2.6 6.1 0.00 0.00 0.00 100 1007.2
20260505172022 68 238 3.5 7.0 0.00 0.00 0.00 100 1007.3
20260505171519 68 252 3.5 7.0 0.00 0.00 0.00 100 1007.3
20260505171021 68 250 2.6 7.0 0.00 0.00 0.00 100 1007.3
20260505170517 68 233 3.5 7.0 0.00 0.00 0.00 100 1007.2
20260505170017 68 232 5.2 8.7 0.00 0.00 0.00 100 1007.1
20260505165517 68 224 5.2 8.7 0.00 0.00 0.00 100 1007.1
20260505165019 68 249 4.3 8.7 0.00 0.00 0.00 100 1007.0
20260505164517 68 215 7.0 8.7 0.00 0.00 0.00 100 1007.1
20260505164017 67 210 5.2 9.6 0.00 0.00 0.00 100 1007.1
20260505163518 67 205 6.1 9.6 0.00 0.00 0.00 100 1007.0
20260505163018 67 213 4.3 7.0 0.00 0.00 0.00 100 1007.0
20260505162525 67 211 3.5 7.8 0.00 0.00 0.00 100 1007.1
20260505162015 67 187 3.5 7.8 0.00 0.00 0.00 100 1007.0
20260505161533 67 246 4.3 8.7 0.00 0.00 0.00 100 1006.9
20260505161015 67 209 4.3 8.7 0.00 0.00 0.00 100 1006.8
20260505160518 67 218 7.0 8.7 0.00 0.00 0.00 100 1006.7
20260505153014 66 215 5.2 11.3 0.00 0.00 0.00 100 1007.0
20260505152512 66 215 7.0 11.3 0.00 0.00 0.00 100 1007.0
20260505152012 66 217 5.2 9.6 0.00 0.00 0.00 100 1007.1
20260505151511 66 234 7.0 9.6 0.00 0.00 0.00 100 1006.9
20260505151012 66 219 6.1 13.0 0.00 0.00 0.00 100 1006.9
20260505150513 66 215 5.2 13.0 0.00 0.00 0.00 100 1006.9
20260505140507 65 211 8.7 16.5 0.00 0.00 0.00 99 1006.7